Regional Weather Roundup
Issued by NWS

Home | Current Version | Previous Version | Graphics & Text | Print | Product List | Glossary On
Versions: 1 2 3 4 5 6 7 8 9 10 11 12 13 14 15 16 17 18 19 20 21 22 23 24 25 26 27 28 29 30 31 32 33 34 35 36 37 38 39 40 41 42 43 44 45 46 47 48 49 50
000
ASUS43 KMPX 270810
RWRMN
WEATHER ROUNDUP FOR MINNESOTA
NATIONAL WEATHER SERVICE TWIN CITIES/CHANHASSEN MN
300 AM CDT FRI MAR 27 2015


NOTE: "FAIR" INDICATES FEW OR NO CLOUDS BELOW 12,000 FEET WITH NO
SIGNIFICANT WEATHER AND/OR OBSTRUCTIONS TO VISIBILITY. N/A MEANS
CURRENT SKY AND/OR WEATHER CONDITIONS ARE NOT AVAILABLE.

MNZ060>063-068>070-270900-
   Twin Cities Metro

CITY           SKY/WX    TMP DP  RH WIND       PRES   REMARKS
TWIN CITIES    CLEAR     23   5  46 N8        30.25R WCI  14
ST PAUL        CLEAR     22   5  48 N9        30.26R WCI  12
CRYSTAL        CLEAR     21   6  52 N6        30.24R WCI  13
BLAINE         CLEAR     19   7  58 N5        30.25R WCI  13
LAKEVILLE      CLEAR     19   5  53 N5        30.23R WCI  13
EDEN PRAIRIE   CLEAR     22   7  52 N6        30.23R WCI  14
SOUTH ST PAUL  CLEAR     24   5  45 N5        30.24S WCI  18
LAKE ELMO      FAIR      21   7  53 N5        30.24S WCI  15
$$
MNZ001>005-007-008-013>017-022>024-027-028-270900-
   Northwest Minnesota

CITY           SKY/WX    TMP DP  RH WIND       PRES   REMARKS
BEMIDJI        CLEAR      8   2  76 CALM      30.25F
HALLOCK        CLEAR     14   9  79 CALM      30.29S
ROSEAU         CLEAR     16   9  73 CALM      30.27S
WARROAD        CLEAR     12   9  85 NE3       30.27S
THIEF RVR FALL CLEAR     16  12  86 CALM      30.27F
CROOKSTON      CLEAR     12  10  92 CALM      30.30S
FOSSTON        FAIR      10   7  85 CALM      30.26F
DETROIT LAKES  CLEAR     14  12  92 CALM      30.26F
MOORHEAD       CLEAR     16  12  86 CALM      30.30S
PARK RAPIDS    CLEAR     12   1  61 NW3       30.24F
MAHNOMEN       FAIR      14  11  88 SE3       30.25F
$$
MNZ006-009>011-018-025>026-270900-
   North Central Minnesota

CITY           SKY/WX    TMP DP  RH WIND       PRES   REMARKS
BAUDETTE       CLEAR     10   5  80 CALM      30.26S
FLAG ISLAND    CLEAR     10   5  79 CALM      30.26S
INTL FALLS     CLEAR      7   3  84 CALM      30.26S
WASKISH        CLEAR     10   7  85 CALM      30.26F
BIG FORK       CLEAR      7   3  85 CALM      30.25S
LONGVILLE      CLEAR     10   7  85 CALM      30.25S
GRAND RAPIDS   CLEAR     12   1  62 CALM      30.24R
CRANE LAKE     CLEAR      3   1  92 CALM      30.28S
ORR            CLEAR      7   1  78 CALM      30.22F
COOK           CLEAR      7   1  78 CALM      30.24S
WALKER         FAIR      10  -1  61 CALM      30.24F
$$
MNZ012-019>021-037-270900-
   Northeast Minnesota

CITY           SKY/WX    TMP DP  RH WIND       PRES   REMARKS
DULUTH         CLEAR     14   2  58 N5        30.21S WCI   6
ELY            CLEAR      5   1  85 CALM      30.22S
HIBBING        CLEAR      6  -1  73 CALM      30.24R
EVELETH        CLEAR     12   5  73 NW3       30.24S
DULUTH HARBOR  CLEAR     21   9  58 NE17      30.28R WCI   7
TWO HARBORS    CLEAR     18   7  62 N3        30.22S
SILVER BAY     CLEAR     12   3  67 CALM      30.22S
GRAND MARAIS     N/A     12   4  70 N5        30.27R WCI   4
G MARAIS ARPRT PTCLDY     3  -2  78 NW5       30.17R WCI  -6
$$
MNZ029>031-032-039>041-046>048-054>057-064-270900-
   West Central Minnesota

CITY           SKY/WX    TMP DP  RH WIND       PRES   REMARKS
FERGUS FALLS   CLEAR     16   9  73 CALM      30.30F
WHEATON        CLEAR     16  10  79 CALM      30.31F
MORRIS         CLEAR     18  12  79 N6        30.27F WCI   9
ALEXANDRIA     CLEAR     16  10  77 N5        30.26S WCI   9
ELBOW LAKE     FAIR      15  11  84 NE3       30.27F
WADENA         CLEAR     14   5  67 N3        30.25F
GLENWOOD       CLEAR     18   9  68 N5        30.26F WCI  11
APPLETON       CLEAR     18  14  86 N5        30.28F WCI  11
BENSON         CLEAR     16  12  86 N3        30.28S
ORTONVILLE     CLEAR     18  12  79 NW5       30.28F WCI  11
MADISON        CLEAR     21  14  73 N8        30.28F WCI  12
WILLMAR        FAIR      18  10  73 NW7       30.28R WCI   8
$$
MNZ033>034-036-042>043-049>051-058-059-270900-
   Central Minnesota

CITY           SKY/WX    TMP DP  RH WIND       PRES   REMARKS
ST CLOUD       CLEAR     18   7  62 N3        30.26R
SAUK CENTRE    FAIR      16   5  62 N5        30.26S WCI   9
PAYNESVILLE    CLEAR     15   4  61 CALM      30.26S
AITKIN         CLEAR     18   3  53 N5        30.24S WCI  11
PINE RIVER     CLEAR     10   3  72 CALM      30.28S
BRAINERD       CLEAR     13   5  70 CALM      30.26R
STAPLES        CLEAR     14   1  57 CALM      30.25F
LONG PRAIRIE   FAIR      18   5  57 NW3       30.26S
LITTLE FALLS   CLEAR     19   1  45 CALM      30.26S
LITCHFIELD     CLEAR     19   7  58 NW3       30.26R
BUFFALO        CLEAR     21   9  58 N5        30.26S WCI  15
MAPLE LAKE     CLEAR     21  11  65 N3        30.26R
$$
MNZ037-044-045-052-053-270900-
   East Central Minnesota

CITY           SKY/WX    TMP DP  RH WIND       PRES   REMARKS
PRINCETON      CLEAR     19   5  53 CALM      30.26R
MORA           CLEAR     19   0  42 CALM      30.27S
CAMBRIDGE      CLEAR     21   7  53 CALM      30.24S
RUSH CITY      CLEAR     19   4  52 N6        30.25S WCI  11
MOOSE LAKE     CLEAR     18   0  45 CALM      30.24R
HINCKLEY       FAIR      19   3  49 N5        30.25R WCI  13
CLOQUET        CLEAR     14   0  52 CALM      30.23S
MCGREGOR       CLEAR     16   5  62 CALM      30.25S
$$
MNZ071>073-080-081-089-090-097-098-270900-
   Southwest Minnesota

CITY           SKY/WX    TMP DP  RH WIND       PRES   REMARKS
MONTEVIDEO     CLEAR     19  14  79 N6        30.29S WCI  11
GRANITE FALLS  CLEAR     20  14  76 NW6       30.29S WCI  13
CANBY          CLEAR     17  14  85 NW6       30.29F WCI   9
MARSHALL       CLEAR     19  10  68 NW9       30.27S WCI   9
REDWOOD FALLS  CLEAR     22  11  62 N6        30.27R WCI  14
OLIVIA         CLEAR     19  14  79 NW6       30.26S WCI  11
PIPESTONE      CLEAR     18  12  79 N5        30.24S WCI  11
WINDOM         CLEAR     19  16  86 N9        30.24R WCI   9
WORTHINGTON    CLEAR     18  10  73 N7        30.24S WCI   8
JACKSON        PTCLDY    21  14  73 NW8       30.23R WCI  12
TRACY          CLEAR     21  15  78 NW8       30.26S WCI  11
SLAYTON        CLEAR     20  13  73 N10       30.24S WCI   9
$$
MNZ065>067-074>077-082>085-091>093-270900-
   South Central Minnesota

CITY           SKY/WX    TMP DP  RH WIND       PRES   REMARKS
MANKATO        CLEAR     18   9  68 N7        30.23R WCI   8
NEW ULM        CLEAR     21  10  63 N7        30.25R WCI  13
ST JAMES       CLEAR     21  18  86 NW6       30.25R WCI  14
FAIRMONT       CLEAR     21  14  73 NW8       30.21S WCI  12
GLENCOE        PTCLDY    19  11  70 N5        30.24S WCI  13
FARIBAULT      CLEAR     12   9  85 CALM      30.22R
OWATONNA       CLEAR     16  10  79 NW3       30.20S
WASECA         CLEAR     18  10  73 N8        30.23R WCI   7
ALBERT LEA     CLEAR     19  16  86 N6        30.19S WCI  11
$$
MNZ078>079-086>088-094>096-270900-
   Southeast Minnesota

CITY           SKY/WX    TMP DP  RH WIND       PRES   REMARKS
ROCHESTER      CLEAR     18   6  59 N6        30.18R WCI  10
RED WING       CLEAR     19   7  58 CALM      30.22S
STANTON        CLEAR     19   9  65 CALM      30.21S
DODGE CENTER   PTCLDY    18   9  68 N6        30.18S WCI   9
WINONA         CLEAR     27  12  54 E6        30.22S WCI  20
AUSTIN         CLEAR     19  10  68 N3        30.18S
PRESTON        CLEAR     19   8  63 N5        30.17S WCI  12
$$
ABBREVIATIONS USED IN REMARKS
   TC - TEMPERATURES IN CELSIUS
  WCI - WIND CHILL INDEX
   HX - HEAT INDEX
  VSB - VISIBILITY
$$



USA.gov is the U.S. government's official web portal to all federal, state and local government web resources and services.